CW4185 Weather Reports


time (UTC)temp
F
wind
direction
speed
knots
gust
knots
rain 1hr
in
rain 24hr
in
rain mn
in
humidity
%
barometer
mb
20260507203146 73 40 2.6 7.0 0.00 0.00 0.02 86 1012.9
20260507202647 73 2 1.7 2.6 0.00 0.00 0.02 87 1012.9
20260507202147 73 309 2.6 4.3 0.00 0.00 0.02 87 1012.9
20260507201647 73 9 2.6 5.2 0.00 0.00 0.02 88 1012.9
20260507201146 73 343 2.6 7.0 0.00 0.00 0.02 87 1012.9
20260507200646 73 351 3.5 7.0 0.00 0.00 0.02 88 1012.9
20260507200147 73 305 2.6 5.2 0.00 0.00 0.02 88 1013.2
20260507195646 73 352 5.2 7.8 0.00 0.00 0.02 87 1012.9
20260507195146 73 39 4.3 4.3 0.00 0.00 0.02 86 1012.9
20260507194649 74 334 3.5 5.2 0.00 0.00 0.02 85 1012.9
20260507194146 74 285 2.6 4.3 0.00 0.00 0.02 86 1012.9
20260507193647 74 0 1.7 4.3 0.00 0.00 0.02 85 1012.9
20260507193147 74 57 4.3 5.2 0.00 0.00 0.02 85 1012.9
20260507192647 74 62 1.7 4.3 0.00 0.00 0.02 87 1013.2
20260507192146 73 12 1.7 6.1 0.00 0.00 0.02 87 1013.5
20260507191649 73 345 4.3 4.3 0.00 0.00 0.02 87 1013.2
20260507191146 73 338 3.5 4.3 0.00 0.00 0.02 87 1012.9
20260507190647 73 47 1.7 4.3 0.00 0.00 0.02 88 1013.5
20260507190146 73 2 2.6 5.2 0.00 0.00 0.02 88 1013.2
20260507185647 73 25 3.5 6.1 0.00 0.00 0.02 88 1013.2
20260507185147 72 331 4.3 7.0 0.00 0.00 0.02 88 1013.5
20260507184201 72 49 3.5 6.1 0.00 0.00 0.02 88 1013.5
20260507183649 72 7 3.5 5.2 0.00 0.00 0.02 88 1013.5
20260507183147 72 333 3.5 6.1 0.00 0.00 0.02 90 1013.5
20260507182649 72 32 2.6 7.8 0.00 0.00 0.02 91 1013.5
20260507182146 71 343 4.3 7.8 0.00 0.00 0.02 92 1013.5
20260507181646 71 12 2.6 6.1 0.00 0.00 0.02 93 1013.5
20260507181148 71 44 6.1 7.0 0.00 0.00 0.02 95 1013.9
20260507180648 71 357 2.6 7.8 0.00 0.00 0.02 94 1013.9
20260507180146 71 32 4.3 8.7 0.00 0.00 0.02 93 1013.9
20260507175646 71 352 0.9 6.1 0.00 0.00 0.02 93 1013.9
20260507175146 71 22 3.5 5.2 0.00 0.00 0.02 93 1013.9
20260507174647 71 357 5.2 6.1 0.00 0.00 0.02 94 1013.9
20260507174147 71 349 3.5 6.1 0.00 0.00 0.02 94 1013.9
20260507173647 70 350 3.5 6.1 0.00 0.00 0.02 95 1013.9
20260507173147 70 347 5.2 7.8 0.00 0.00 0.02 94 1013.9
20260507172647 70 27 1.7 7.8 0.00 0.00 0.02 95 1013.9
20260507172146 70 329 5.2 7.0 0.00 0.00 0.02 95 1013.9
20260507171647 70 12 5.2 8.7 0.00 0.00 0.02 95 1014.2
20260507171147 70 334 3.5 7.8 0.00 0.00 0.02 95 1014.2
20260507170647 70 354 5.2 7.0 0.00 0.00 0.02 95 1014.2
20260507170146 71 3 4.3 8.7 0.00 0.00 0.02 95 1014.2
20260507165646 71 354 6.1 7.8 0.00 0.00 0.02 94 1014.2
20260507165147 71 349 2.6 6.1 0.00 0.00 0.02 94 1014.2
20260507164647 71 323 4.3 7.0 0.00 0.00 0.02 94 1014.2
20260507164147 71 0 4.3 6.1 0.00 0.00 0.02 95 1014.2
20260507163647 71 328 2.6 6.1 0.00 0.00 0.02 95 1014.2
20260507163146 71 349 4.3 8.7 0.00 0.00 0.02 96 1014.2
20260507162646 71 336 1.7 5.2 0.00 0.00 0.02 96 1014.2
20260507162147 71 23 3.5 6.1 0.00 0.00 0.02 97 1014.2
20260507161646 71 347 2.6 5.2 0.00 0.00 0.02 97 1014.2
20260507161146 71 15 3.5 7.8 0.00 0.00 0.02 97 1013.9
20260507160646 71 42 2.6 5.2 0.00 0.00 0.02 98 1014.2
20260507160147 71 338 2.6 4.3 0.00 0.00 0.02 98 1014.2
20260507155646 70 29 1.7 6.1 0.00 0.00 0.02 98 1014.2
20260507155147 70 40 1.7 7.8 0.00 0.00 0.02 98 1014.2
20260507154646 71 5 2.6 9.6 0.00 0.00 0.02 99 1014.2
20260507154146 71 21 2.6 4.3 0.00 0.00 0.02 99 1014.2
20260507153647 71 312 5.2 6.1 0.00 0.00 0.02 99 1014.2
20260507153148 71 314 4.3 7.0 0.00 0.00 0.02 99 1014.2
20260507152648 71 355 2.6 7.0 0.00 0.00 0.02 99 1013.9
20260507152146 70 3 5.2 6.1 0.00 0.00 0.02 99 1014.2
20260507151646 71 1 5.2 7.8 0.00 0.00 0.02 99 1013.9
20260507151147 71 338 4.3 8.7 0.00 0.00 0.02 99 1014.2
20260507150646 71 358 2.6 8.7 0.00 0.00 0.02 99 1013.9
20260507150147 71 332 5.2 11.3 0.00 0.00 0.02 99 1013.9
20260507145647 72 350 2.6 7.0 0.00 0.00 0.02 99 1013.9
20260507145147 72 13 0.9 7.8 0.00 0.00 0.02 99 1013.9
20260507144646 72 336 6.1 7.0 0.00 0.00 0.02 99 1013.5
20260507144147 72 340 4.3 7.0 0.00 0.00 0.02 99 1013.5
20260507143647 73 359 3.5 7.8 0.00 0.00 0.02 99 1013.5
20260507143147 73 343 3.5 6.1 0.00 0.00 0.02 99 1013.5
20260507142647 73 338 3.5 6.1 0.00 0.00 0.02 99 1013.5
20260507142146 73 357 4.3 5.2 0.00 0.00 0.02 99 1013.5
20260507141647 73 339 4.3 7.0 0.02 0.00 0.02 99 1013.5
20260507141147 73 324 3.5 5.2 0.02 0.00 0.02 99 1013.5
20260507140650 73 311 1.7 6.1 0.05 0.00 0.02 99 1013.5
20260507140147 73 336 1.7 7.0 0.07 0.00 0.02 99 1013.5
20260507135647 73 300 4.3 7.8 0.05 0.00 0.01 99 1013.5
20260507135147 74 356 3.5 9.6 0.02 0.00 0.00 99 1013.2
20260507134648 74 342 3.5 8.7 0.00 0.00 0.00 98 1013.5
20260507134147 75 319 4.3 7.0 0.00 0.00 0.00 97 1013.5
20260507133646 77 329 3.5 9.6 0.00 0.00 0.00 97 1013.2
20260507133147 77 229 2.6 6.1 0.00 0.00 0.00 98 1013.2
20260507132647 77 190 3.5 7.0 0.00 0.00 0.00 97 1012.9
20260507132146 77 201 6.1 7.8 0.00 0.00 0.00 97 1012.9
20260507131648 77 220 6.1 6.1 0.00 0.00 0.00 97 1012.9
20260507131146 77 198 3.5 7.0 0.00 0.00 0.00 97 1013.2
20260507130647 77 212 4.3 6.1 0.00 0.00 0.00 97 1013.2
20260507130147 77 193 2.6 7.0 0.00 0.00 0.00 97 1012.9
20260507125648 77 210 4.3 5.2 0.00 0.00 0.00 97 1012.9
20260507125147 77 222 4.3 7.8 0.00 0.00 0.00 97 1012.9
20260507124647 77 218 5.2 6.1 0.00 0.00 0.00 97 1012.9
20260507124147 77 188 4.3 7.0 0.00 0.00 0.00 97 1012.5
20260507123647 77 179 5.2 9.6 0.00 0.00 0.00 97 1012.5
20260507123146 77 179 4.3 6.1 0.00 0.00 0.00 97 1012.5
20260507122646 77 170 2.6 7.8 0.00 0.00 0.00 97 1012.5
20260507122147 77 188 2.6 7.8 0.00 0.00 0.00 97 1012.5
20260507121649 77 165 2.6 5.2 0.00 0.00 0.00 97 1012.5
20260507121148 77 192 1.7 4.3 0.00 0.00 0.00 97 1012.5
20260507120646 77 186 6.1 7.0 0.00 0.00 0.00 97 1012.5
20260507120146 77 186 4.3 6.1 0.00 0.00 0.00 97 1012.5
20260507115647 77 201 3.5 7.0 0.00 0.00 0.00 97 1012.2
20260507115146 77 190 4.3 6.1 0.00 0.00 0.00 98 1011.9
20260507114646 77 193 4.3 6.1 0.00 0.00 0.00 98 1012.2
20260507114146 77 159 7.0 7.8 0.00 0.00 0.00 98 1011.9
20260507113647 77 178 7.0 8.7 0.00 0.00 0.00 98 1011.9
20260507113147 77 171 4.3 5.2 0.00 0.00 0.00 98 1011.9
20260507112646 77 179 4.3 7.0 0.00 0.00 0.00 97 1011.9
20260507112147 77 181 3.5 4.3 0.00 0.00 0.00 97 1011.9
20260507111648 77 160 5.2 6.1 0.00 0.00 0.00 97 1011.5
20260507111147 77 206 2.6 5.2 0.00 0.00 0.00 97 1011.5
20260507110646 77 198 3.5 5.2 0.00 0.00 0.00 97 1011.2
20260507110147 77 176 3.5 5.2 0.00 0.00 0.00 97 1011.2
20260507105646 77 179 2.6 5.2 0.00 0.00 0.00 97 1011.2
20260507105150 77 178 5.2 7.0 0.00 0.00 0.00 97 1011.5
20260507104646 77 175 4.3 6.1 0.00 0.00 0.00 96 1011.5
20260507104147 77 179 3.5 4.3 0.00 0.00 0.00 96 1011.2
20260507103646 77 185 3.5 4.3 0.00 0.00 0.00 96 1011.2
20260507103148 77 195 1.7 4.3 0.00 0.00 0.00 96 1011.2
20260507102646 77 168 4.3 6.1 0.00 0.00 0.00 97 1011.2
20260507102147 77 162 4.3 6.1 0.00 0.00 0.00 96 1011.2
20260507101646 77 185 4.3 4.3 0.00 0.00 0.00 96 1011.2
20260507101147 77 161 3.5 4.3 0.00 0.00 0.00 96 1011.2
20260507100647 77 173 4.3 4.3 0.00 0.00 0.00 96 1010.8
20260507100147 77 196 1.7 4.3 0.00 0.00 0.00 96 1011.2
20260507095646 77 173 2.6 5.2 0.00 0.00 0.00 96 1011.2
20260507095146 77 151 0.9 3.5 0.00 0.00 0.00 96 1010.8
20260507094646 77 181 2.6 4.3 0.00 0.00 0.00 95 1010.8
20260507094147 77 171 5.2 5.2 0.00 0.00 0.00 95 1010.8
20260507093646 77 189 3.5 5.2 0.00 0.00 0.00 95 1010.8
20260507093146 77 218 1.7 3.5 0.00 0.00 0.00 95 1010.8
20260507092648 77 183 2.6 3.5 0.00 0.00 0.00 96 1010.8
20260507092146 77 196 1.7 3.5 0.00 0.00 0.00 96 1011.2
20260507091647 77 189 1.7 4.3 0.00 0.00 0.00 96 1010.8
20260507091147 77 194 1.7 4.3 0.00 0.00 0.00 95 1010.8
20260507090647 77 207 1.7 3.5 0.00 0.00 0.00 95 1011.2
20260507090147 77 253 3.5 3.5 0.00 0.00 0.00 95 1011.2
20260507085647 77 246 2.6 4.3 0.00 0.00 0.00 95 1010.8
20260507085147 77 195 2.6 4.3 0.00 0.00 0.00 95 1010.8
20260507084648 77 202 3.5 4.3 0.00 0.00 0.00 95 1010.8
20260507084147 77 195 3.5 4.3 0.00 0.00 0.00 95 1010.8
20260507083646 77 229 4.3 6.1 0.00 0.00 0.00 95 1010.5
20260507083147 77 220 1.7 6.1 0.00 0.00 0.00 95 1010.8
20260507082647 77 195 3.5 5.2 0.00 0.00 0.00 95 1010.5
20260507082147 77 192 2.6 4.3 0.00 0.00 0.00 95 1010.8
20260507081647 77 211 3.5 5.2 0.00 0.00 0.00 95 1010.8
20260507081146 77 168 3.5 3.5 0.00 0.00 0.00 96 1010.8
20260507080646 77 201 2.6 7.0 0.00 0.00 0.00 96 1010.8
20260507080146 77 207 1.7 4.3 0.00 0.00 0.00 96 1011.2
20260507075648 77 203 3.5 5.2 0.00 0.00 0.00 96 1010.8
20260507075147 77 225 1.7 4.3 0.00 0.00 0.00 95 1011.2
20260507074646 77 238 2.6 3.5 0.00 0.00 0.00 95 1011.2
20260507074146 77 202 2.6 4.3 0.00 0.00 0.00 95 1011.2
20260507073648 77 217 1.7 7.8 0.00 0.00 0.00 95 1010.8
20260507073147 77 186 3.5 4.3 0.00 0.00 0.00 95 1010.8
20260507072647 77 200 5.2 8.7 0.00 0.00 0.00 95 1011.2
20260507072146 77 202 4.3 8.7 0.00 0.00 0.00 95 1010.8
20260507071201 78 191 4.3 10.4 0.00 0.00 0.00 95 1010.8
20260507070646 78 176 4.3 7.8 0.00 0.00 0.00 95 1010.8
20260507070146 78 226 4.3 8.7 0.00 0.00 0.00 95 1011.2
20260507065646 78 183 5.2 7.0 0.00 0.00 0.00 95 1011.2
20260507065147 78 172 5.2 7.8 0.00 0.00 0.00 95 1011.2
20260507064647 78 209 5.2 8.7 0.00 0.00 0.00 94 1011.2
20260507064147 78 182 4.3 6.1 0.00 0.00 0.00 95 1011.2
20260507063647 78 180 4.3 8.7 0.00 0.00 0.00 95 1011.2
20260507063147 78 180 5.2 7.0 0.00 0.00 0.00 95 1011.2
20260507062648 78 198 3.5 9.6 0.00 0.00 0.00 95 1011.2
20260507062147 78 180 6.1 9.6 0.00 0.00 0.00 95 1010.8
20260507061646 78 185 6.1 9.6 0.00 0.00 0.00 95 1011.2
20260507061148 78 166 7.8 8.7 0.00 0.00 0.00 95 1011.2
20260507060646 78 174 9.6 11.3 0.00 0.00 0.00 95 1011.2
20260507060147 78 189 4.3 10.4 0.00 0.00 0.00 95 1011.2
20260507055646 78 188 6.1 8.7 0.00 0.00 0.00 95 1011.2
20260507055146 78 182 6.1 8.7 0.00 0.00 0.00 95 1011.5
20260507054648 78 192 7.8 12.2 0.00 0.00 0.00 95 1011.2
20260507054147 78 176 7.0 11.3 0.00 0.00 0.00 94 1011.2
20260507053647 78 172 4.3 7.8 0.00 0.00 0.00 94 1011.2
20260507053147 78 207 5.2 6.1 0.00 0.00 0.00 94 1011.2
20260507052647 78 219 7.0 7.8 0.00 0.00 0.00 94 1011.2
20260507052147 78 169 7.8 10.4 0.00 0.00 0.00 94 1011.2
20260507051647 78 177 6.1 12.2 0.00 0.00 0.00 94 1011.2
20260507051147 78 173 5.2 11.3 0.00 0.00 0.00 94 1011.2
20260507050646 78 170 8.7 12.2 0.00 0.00 0.00 95 1011.2
20260507050147 78 165 6.1 12.2 0.00 0.00 0.00 95 1011.2
20260507045646 78 174 6.1 8.7 0.00 0.00 0.02 95 1011.2
20260507045146 78 178 5.2 9.6 0.00 0.00 0.02 94 1011.2
20260507044646 78 179 6.1 11.3 0.00 0.00 0.02 94 1011.2
20260507044146 78 178 7.0 11.3 0.00 0.00 0.02 94 1011.2
20260507043646 78 183 5.2 12.2 0.00 0.00 0.02 94 1011.2
20260507043147 78 173 7.0 11.3 0.00 0.00 0.02 93 1011.2
20260507042646 78 174 7.0 13.0 0.00 0.00 0.02 93 1011.2
20260507042146 78 170 8.7 12.2 0.00 0.00 0.02 94 1011.2
20260507041646 78 157 12.2 14.8 0.00 0.00 0.02 93 1011.2
20260507041146 78 167 7.8 12.2 0.00 0.00 0.02 93 1011.2
20260507040647 78 166 9.6 13.9 0.00 0.00 0.02 93 1011.2
20260507040146 78 162 9.6 14.8 0.00 0.00 0.02 93 1011.2
20260507035646 78 180 8.7 11.3 0.00 0.00 0.02 93 1011.2
20260507035147 78 163 9.6 12.2 0.00 0.00 0.02 92 1011.2
20260507034646 78 180 7.0 11.3 0.00 0.00 0.02 92 1011.2
20260507034147 78 158 6.1 9.6 0.00 0.00 0.02 93 1011.2
20260507033647 78 175 5.2 10.4 0.00 0.00 0.02 92 1011.2
20260507033147 78 164 8.7 11.3 0.00 0.00 0.02 92 1011.2
20260507032647 78 173 7.8 11.3 0.00 0.00 0.02 92 1011.2
20260507032147 79 176 7.0 13.0 0.00 0.00 0.02 92 1011.2
20260507031648 79 167 10.4 13.9 0.00 0.00 0.02 92 1011.5
20260507031148 79 169 7.0 15.6 0.00 0.00 0.02 92 1011.2
20260507030647 79 152 8.7 13.0 0.00 0.00 0.02 92 1011.2
20260507030148 79 163 4.3 13.0 0.00 0.00 0.02 92 1011.2
20260507025647 79 150 7.8 14.8 0.00 0.00 0.02 92 1011.2
20260507025147 79 160 7.8 8.7 0.00 0.00 0.02 92 1011.2
20260507024647 79 150 5.2 12.2 0.00 0.00 0.02 92 1011.2
20260507024147 79 169 9.6 10.4 0.00 0.00 0.02 91 1011.2
20260507023646 79 160 6.1 10.4 0.00 0.00 0.02 91 1011.2
20260507023146 79 172 4.3 10.4 0.00 0.00 0.02 91 1011.5
20260507022646 79 175 6.1 7.8 0.00 0.00 0.02 91 1011.5
20260507022148 79 149 9.6 10.4 0.00 0.00 0.02 91 1011.2
20260507021646 79 184 6.1 9.6 0.00 0.00 0.02 91 1011.2
20260507021147 79 162 7.0 8.7 0.00 0.00 0.02 91 1011.2
20260507020647 79 205 4.3 10.4 0.00 0.00 0.02 91 1011.2
20260507020149 79 180 8.7 12.2 0.00 0.00 0.02 91 1011.2
20260507015646 79 187 6.1 7.8 0.00 0.00 0.02 91 1010.8
20260507015146 79 155 7.8 10.4 0.00 0.00 0.02 91 1010.8
20260507014647 79 166 7.0 10.4 0.00 0.00 0.02 91 1010.8
20260507014146 79 172 2.6 9.6 0.00 0.00 0.02 91 1010.5
20260507013646 79 168 7.0 10.4 0.00 0.00 0.02 92 1010.8
20260507013146 79 170 6.1 11.3 0.00 0.00 0.02 92 1010.8
20260507012647 79 166 6.1 8.7 0.00 0.00 0.02 92 1010.8
20260507012150 79 157 6.1 9.6 0.00 0.00 0.02 92 1010.8
20260507011646 79 160 7.0 8.7 0.00 0.00 0.02 92 1010.8
20260507011147 79 162 5.2 7.8 0.00 0.00 0.02 92 1010.5
20260507010646 79 159 9.6 10.4 0.00 0.00 0.02 92 1010.8
20260507010147 79 169 5.2 7.0 0.00 0.00 0.02 93 1010.8
20260507005647 79 166 9.6 11.3 0.00 0.00 0.02 92 1010.5
20260507005146 79 180 4.3 8.7 0.00 0.00 0.02 92 1010.5
20260507004648 80 160 7.8 11.3 0.00 0.00 0.02 92 1010.5
20260507004147 80 157 7.8 10.4 0.00 0.00 0.02 92 1010.5
20260507003647 80 156 7.8 10.4 0.00 0.00 0.02 92 1010.5
20260507003147 80 167 8.7 9.6 0.00 0.00 0.02 92 1010.5
20260507002646 80 162 4.3 13.0 0.00 0.00 0.02 91 1010.5
20260507002147 80 162 5.2 8.7 0.00 0.00 0.02 91 1010.5
20260507001647 80 159 5.2 10.4 0.00 0.00 0.02 91 1010.2
20260507001147 80 161 7.0 9.6 0.00 0.00 0.02 91 1010.5
20260507000647 80 165 6.1 13.0 0.00 0.00 0.02 91 1010.5
20260507000146 80 167 7.8 13.9 0.00 0.00 0.02 90 1010.2
20260506235646 80 145 6.1 13.0 0.00 0.00 0.02 90 1010.2
20260506235147 80 168 7.8 11.3 0.00 0.00 0.02 90 1010.2
20260506234647 80 166 9.6 13.0 0.00 0.00 0.02 90 1010.2
20260506234147 80 160 6.1 10.4 0.00 0.00 0.02 89 1010.2
20260506233646 80 169 7.0 9.6 0.00 0.00 0.02 89 1010.2
20260506233147 81 193 6.1 10.4 0.00 0.00 0.02 89 1010.2
20260506232647 81 169 7.8 13.9 0.00 0.00 0.02 88 1010.2
20260506232147 81 151 9.6 11.3 0.00 0.00 0.02 88 1010.2
20260506231646 81 167 8.7 13.0 0.00 0.00 0.02 87 1009.8
20260506231147 81 164 7.0 16.5 0.00 0.00 0.02 87 1009.8
20260506230646 81 170 13.0 15.6 0.00 0.00 0.02 87 1009.8
20260506230146 81 164 9.6 14.8 0.00 0.00 0.02 87 1010.2
20260506225646 82 154 7.0 8.7 0.00 0.00 0.02 87 1010.2
20260506225147 81 167 7.0 13.9 0.00 0.00 0.02 87 1010.2
20260506224646 82 190 9.6 11.3 0.00 0.00 0.02 86 1010.2
20260506224146 82 166 11.3 16.5 0.00 0.00 0.02 86 1010.2
20260506223646 82 170 11.3 12.2 0.00 0.00 0.02 85 1010.2
20260506223147 82 141 8.7 13.0 0.00 0.00 0.02 85 1010.2
20260506222647 82 155 7.8 11.3 0.00 0.00 0.02 84 1010.2
20260506222146 83 175 7.8 11.3 0.00 0.00 0.02 84 1010.5
20260506221651 83 182 10.4 15.6 0.00 0.00 0.02 82 1010.5
20260506221146 83 162 6.1 13.9 0.00 0.00 0.02 83 1010.5
20260506220647 83 166 10.4 15.6 0.00 0.00 0.02 82 1010.5
20260506220147 83 178 8.7 14.8 0.00 0.00 0.02 82 1010.5
20260506215646 83 169 12.2 17.4 0.00 0.00 0.02 82 1010.8
20260506215146 84 172 8.7 13.0 0.00 0.00 0.02 80 1010.5
20260506214646 84 170 7.8 12.2 0.00 0.00 0.02 81 1010.5
20260506214147 84 164 12.2 15.6 0.00 0.00 0.02 80 1010.5
20260506213646 83 179 11.3 13.9 0.00 0.00 0.02 81 1010.5
20260506213149 84 156 9.6 15.6 0.00 0.00 0.02 80 1010.8
20260506212648 84 175 6.1 12.2 0.00 0.00 0.02 80 1010.8
20260506212147 84 171 10.4 14.8 0.00 0.00 0.02 79 1010.8
20260506211646 84 137 12.2 14.8 0.00 0.00 0.02 80 1010.8
20260506211147 84 170 12.2 13.9 0.00 0.00 0.02 79 1010.8
20260506210646 84 163 8.7 12.2 0.00 0.00 0.02 80 1010.8
20260506210147 84 159 7.8 13.9 0.00 0.00 0.02 79 1010.8
20260506205647 84 166 14.8 18.2 0.00 0.00 0.02 78 1010.8
20260506205146 85 180 9.6 10.4 0.00 0.00 0.02 79 1010.5
20260506204647 84 186 8.7 13.9 0.00 0.00 0.02 80 1010.8
20260506204147 84 173 9.6 12.2 0.00 0.00 0.02 80 1011.2
20260506203647 84 159 8.7 15.6 0.00 0.00 0.02 81 1011.2